Torna al catalogo

CZ-6A DEB

AttivoPO
NORAD 60788·DEBRIS·🇨🇳 China

Lanciato Aug 6, 2024 da Taiyuan Satellite Launch Center

Loading…

Prossimi Passaggi (prossime 24 ore)

TLE

AggiornatoSource: Space-Track

Epoca: Sep 13, 2026, 17:25 UTC

1 60788U 24140FP  26256.72636405  .00001124  00000-0  49234-3 0  9997
2 60788  88.9506 260.4030 0039373 265.1667  94.5028 14.22674776106135

Traccia CZ-6A DEB in tempo reale con AllMySat

Download on the App Store